Other Public Products
Issued by NWS Charleston, SC

Current Version | Previous Version | Text Only | Print | Product List | Glossary Off
Versions: 1 2 3 4 5 6 7 8 9 10 11 12 13 14 15 16 17 18 19 20 21 22 23 24 25 26 27 28 29 30 31 32 33 34 35 36 37 38 39 40 41 42 43 44 45 46 47 48 49 50

395
FPUS82 KCHS 201012
OPUCHS

TEST...KCHS/KSAV Gateway Observations...TEST
National Weather Service Charleston SC
600 AM EDT SUN AUG 20 2017

NOTE: "fair" indicates few or no clouds below 12,000 feet with no
significant weather and/or obstructions to visibility.

SCZ050-WAZ558-NCZ071-TXZ119-213-PAZ071-DCZ001-FLZ074-172-MI076-
NYZ176-178-MAZ016-IL014-TNZ027-NJZ106-GAZ044-MD014-201100-

...Gateway Observations for Charleston International...

CITY           SKY/WX    TMP DP  RH WIND       PRES   REMARKS
Chas Airport   PTCLDY    79  79 100 CALM      30.01R
Seattle        FAIR      59  49  69 N10       30.17S
Charlotte      PTCLDY    73  71  93 N6        30.06R
Dallas DFW     PTCLDY    84  70  62 S12       29.93S
Dallas Love    PTCLDY    83  70  64 S9        29.95S
Philladelphia  PTCLDY    69  60  73 NW8       30.03R
Wash National  PTCLDY    71  62  73 N8        30.06R
Baltimore      CLEAR     65  62  90 NW5       30.05R
Miami          CLOUDY    84  73  69 CALM      29.98R THUNDER HX  90
Detroit        CLEAR     62  59  90 CALM      30.06S
Newark         CLEAR     68  61  78 W7        29.99R
Laguardia      CLEAR     71  63  75 NW15      29.97R
J F K          PTCLDY    72  63  73 NW10      29.98R
Boston Logan   PTCLDY    72  63  73 W10       29.87R
Ft. Lauderdale CLOUDY    83  75  77 E10       29.96S HX  90
Chicago O`Hare CLEAR     64  57  78 S3        30.01R
Chicago Midway PTCLDY    68  59  73 SE6       30.01R
Houston Bush   PTCLDY    78  75  90 CALM      29.97R
Houston Hobby  PTCLDY    81  75  82 CALM      29.96S
Nashville      CLEAR     73  70  90 CALM      30.03S
Atlanta        CLEAR     77  66  68 NE5       30.06R

$$

GAZ044-118-TXZ119-213-NCZ071-DCZ001-MDZ014-506-PAZ021-071-NJZ106-
NYZ176-178-MAZ106-OHZ011-021-055-MIZ076-KYZ091-ILZ014-INZ047-
MNZ060-ONZ431-201100-

...Gateway Observations for Savannah International...

CITY           SKY/WX    TMP DP  RH WIND       PRES   REMARKS
Savannah Arpt  PTCLDY    79  76  90 S5        30.01R
Atlanta        CLEAR     77  66  68 NE5       30.06R
Charlotte      PTCLDY    73  71  93 N6        30.06R
Dallas DFW     PTCLDY    84  70  62 S12       29.93S
Houston Bush   PTCLDY    78  75  90 CALM      29.97R
Wash National  PTCLDY    71  62  73 N8        30.06R
Wash Dulles    PTCLDY    68  63  84 N8        30.06R
Baltimore      CLEAR     65  62  90 NW5       30.05R
Philadelphia   PTCLDY    69  60  73 NW8       30.03R
Newark         CLEAR     68  61  78 W7        29.99R
Laguardia      CLEAR     71  63  75 NW15      29.97R
J F K          PTCLDY    72  63  73 NW10      29.98R
Boston         PTCLDY    72  63  73 W10       29.87R
Pittsburg      FOG       60  60 100 CALM      30.10R VSB 1/8
Akron          CLEAR     62  57  83 S3        30.10R
Cleveland      CLEAR     62  58  86 CALM      30.10R
Cincinnati     CLEAR     70  68  93 S6        30.04S
Columbus       MOCLDY    62  62 100 CALM      30.06S
Detroit        CLEAR     62  59  90 CALM      30.06S
Chicago O`Hare CLEAR     64  57  78 S3        30.01R
Minneapolis    CLOUDY    67  61  81 SE6       29.87F
Indianapolis   CLEAR     69  63  81 E6        30.01R
Toronto Canada PTCLDY    61  55  82 W3        30.01R

$$




USA.gov is the U.S. government's official web portal to all federal, state and local government web resources and services.